Retour au catalogue

GALAXY 35

ActifCommunicationsGEO
NORAD 54741·PAYLOAD·🇺🇸 United States

Lancé Dec 13, 2022 depuis Guiana Space Centre

Loading…

TLE

FraisSource: CelesTrak SupGP

Époque: Sep 15, 2026, 00:26 UTC

1 54741C 22170A   26258.01805556 -.00000072  00000+0  00000+0 0  2582
2 54741   0.0255 244.7985 0002025 280.1902 102.4011  1.00272486    15

Suivez GALAXY 35 en temps réel avec AllMySat

Download on the App Store